Location: Unspecified
(0.0000°N, 0.0000°E)
Time: 09:59:40
(UTC+00:00)

deb Delta 104 - Pass Details

Date: 08 March 2026
Orbit: 754 x 1064 km, 103.0° (Epoch: 20 April)

Event Time Altitude Azimuth Distance (km) Brightness Sun altitude
Rises 19:16:07 0° 167° (SSE) 3,796 ? -16.3°
Reaches altitude 10° 19:18:42 10° 169° (S) 2,813 ? -16.9°
Maximum altitude 19:24:59 72° 252° (WSW) 1,022 ? -18.5°
Drops below altitude 10° 19:30:49 10° 337° (NNW) 2,611 ? -20.0°
Sets 19:33:09 0° 339° (NNW) 3,507 ? -20.5°
